Flag for Switzerland Weather past 2 weeks in Schwyz, Schwyz, Switzerland

Now
79 °F

Warm.


Feels Like: 81 °F
Forecast: 66 / 90 °F
Wind: 1 mph from West

Location: Altdorf

Current Time: Aug 29, 2015 at 7:34:37 PM

Latest Report: Aug 29, 2015 at 6:00 PM


Visibility: N/A

Pressure: 30.04 "Hg (28.32 "Hg at 515m altitude)

Humidity: 61%

Dew point: 64 °F

Location of SchwyzLocation

Historic Weather in Schwyz — Graph

°F

Schwyz temperature yesterday

Maximum temperature yesterday: 84 °F (at 4:00 PM)
Minimum temperature yesterday: 64 °F (at 7:00 AM)
Average temperature yesterday: 74 °F

Past Weeks' High & Low Weather Summary

 TemperatureHumidityPressure
High84 °F (Aug 28, 4:00 PM)99% (Aug 19, 2:00 AM)30.28 "Hg (Aug 19, 2:00 AM)
Low50 °F (Aug 26, 7:00 AM)36% (Aug 23, 12:00 PM)29.67 "Hg (Aug 24, 8:00 AM)
Average64 °F77%29.99 "Hg
* Reported Aug 14 6:00 PM — Aug 29 6:00 PM, Schwyz, Weather by CustomWeather, © 2015

Note: Actual official high and low records may vary slightly from our data, if they occured in-between our weather recording intervals... More about our weather records

Advertising

Schwyz weather history for previous 24 hours

 ConditionsComfort  
Time TempWeatherWind HumidityBarometerVisibility
6:00 PM
Sat, Aug 29
79 °FWarm.1 mph61%30.04 "HgN/A
5:00 PM81 °FSunny.6 mph55%30.04 "Hg19 mi
4:00 PM82 °FWarm.5 mph54%30.06 "HgN/A
3:00 PM81 °FWarm.3 mph56%30.08 "HgN/A
1:00 PM77 °FMild.5 mph64%30.13 "HgN/A
12:00 PM75 °FMild.5 mph67%30.15 "HgN/A
10:00 AM72 °FMild.2 mph72%30.16 "HgN/A
9:00 AM69 °FMild.No wind82%30.16 "HgN/A
7:00 AM60 °FCool.No wind92%30.17 "HgN/A
4:00 AM65 °FMild.2 mph78%30.15 "HgN/A
3:00 AM64 °FMild.2 mph81%30.16 "HgN/A
2:00 AM65 °FClear.3 mph81%30.17 "Hg19 mi
1:00 AM64 °FMild.2 mph84%30.17 "HgN/A
10:00 PM
Fri, Aug 28
71 °FMild.1 mph69%30.11 "HgN/A
9:00 PM71 °FMild.3 mph68%30.09 "HgN/A
8:00 PM74 °FPartly sunny.5 mph62%30.06 "Hg16 mi
7:00 PM76 °FMild.2 mph58%30.04 "HgN/A
Weather by CustomWeather, © 2015

See weather overviewHow to use our weather pages